Hourly Data Report for September 03, 2017

TORONTO CITY
ONTARIO

43°40'00.000" N
79°24'00.000" W
112.50 m
6158355
71508
XTO

Download Data

Hourly Data (September 2017)
Hourly Data Report for September 3, 2017
TIME
LST
Temp Definition
°C
Dew Point Definition
°C
Rel Hum Definition
%
Precip. Amount Definition
mm

Wind Dir Definition
10's deg

Wind Spd Definition
km/h
Visibility Definition
km
Stn Press Definition
kPa
Hmdx Definition


Wind Chill Definition


Weather Definition


00:00 16.9 11.7 72 0.0 LegendMM LegendMM   99.97     LegendNANA
01:00 16.3 12.0 76 0.0 LegendMM LegendMM   99.90     LegendNANA
02:00 15.1 13.0 87 0.0 LegendMM LegendMM   99.81     LegendNANA
03:00 14.9 13.4 91 0.8 LegendMM LegendMM   99.73     LegendNANA
04:00 15.1 13.7 92 0.6 LegendMM LegendMM   99.67     LegendNANA
05:00 15.2 13.8 92 2.6 LegendMM LegendMM   99.65     LegendNANA
06:00 15.4 14.1 92 3.2 LegendMM LegendMM   99.65     LegendNANA
07:00 15.8 14.3 91 0.2 LegendMM LegendMM   99.68     LegendNANA
08:00 15.7 13.8 89 0.0 LegendMM LegendMM   99.67     LegendNANA
09:00 16.2 13.3 83 0.0 LegendMM LegendMM   99.65     LegendNANA
10:00 18.6 13.8 74 0.0 LegendMM LegendMM   99.64     LegendNANA
11:00 19.7 12.7 64 0.0 LegendMM LegendMM   99.66     LegendNANA
12:00 20.1 12.1 60 0.0 LegendMM LegendMM   99.64     LegendNANA
13:00 19.4 12.9 66 0.0 LegendMM LegendMM   99.63     LegendNANA
14:00 21.7 12.3 55 0.0 LegendMM LegendMM   99.60     LegendNANA
15:00 21.1 10.7 52 0.4 LegendMM LegendMM   99.61     LegendNANA
16:00 20.7 12.1 58 0.0 LegendMM LegendMM   99.66     LegendNANA
17:00 21.1 8.9 45 0.0 LegendMM LegendMM   99.69     LegendNANA
18:00 20.4 9.5 50 0.0 LegendMM LegendMM   99.75     LegendNANA
19:00 19.5 11.5 60 0.0 LegendMM LegendMM   99.78     LegendNANA
20:00 18.3 11.8 66 0.0 LegendMM LegendMM   99.83     LegendNANA
21:00 17.4 12.2 71 0.0 LegendMM LegendMM   99.83     LegendNANA
22:00 16.7 12.3 75 0.0 LegendMM LegendMM   99.79     LegendNANA
23:00 16.7 12.5 76 0.0 LegendMM LegendMM   99.76     LegendNANA

Notes on Data Quality.

Legend

  • E = Estimated
  • M = Missing
  • NA = Not Available*
  • [empty] = Indicates an unobserved value
Date modified: